C2702 KPIE-KPIE

Flight info

Callsign C2702
Flight time 0h 59m
Altitude 2000
Route VFR SAR
Aircraft C27J/M-VGD/N

Departure

Time 2026-04-27 00:07
Airport St. Petersburg Clearwater International Airport (KPIE)

Arrival

Time 2026-04-27 01:07
Airport St. Petersburg Clearwater International Airport (KPIE)
Time Latitude Longitude Altitude Speed Heading
2026-04-27 00:01 27.91060 -82.69538 23 ft 0 kts 111°
2026-04-27 00:04 27.91059 -82.69536 25 ft 0 kts 111°
2026-04-27 00:04 27.91047 -82.69531 25 ft 8 kts 182°
2026-04-27 00:05 27.90932 -82.69537 22 ft 21 kts 182°
2026-04-27 00:05 27.90824 -82.69498 23 ft 15 kts 95°
2026-04-27 00:05 27.90831 -82.69355 23 ft 22 kts 85°
2026-04-27 00:05 27.90840 -82.69162 22 ft 27 kts 87°
2026-04-27 00:06 27.90788 -82.68977 23 ft 25 kts 148°
2026-04-27 00:06 27.90613 -82.68924 22 ft 27 kts 169°
2026-04-27 00:06 27.90545 -82.68824 23 ft 12 kts 81°
2026-04-27 00:06 27.90621 -82.68765 23 ft 31 kts 354°
2026-04-27 00:07 27.91105 -82.68863 20 ft 105 kts 351°
2026-04-27 00:07 27.91929 -82.69021 231 ft 137 kts 346°
2026-04-27 00:07 27.92956 -82.69227 638 ft 165 kts 347°
2026-04-27 00:07 27.94262 -82.69616 362 ft 225 kts 335°
2026-04-27 00:08 27.95420 -82.70840 724 ft 234 kts 304°
2026-04-27 00:08 27.96350 -82.72385 1198 ft 241 kts 305°
2026-04-27 00:08 27.97416 -82.73875 1668 ft 246 kts 310°
2026-04-27 00:08 27.98536 -82.75356 2141 ft 250 kts 308°
2026-04-27 00:09 27.99613 -82.76922 2623 ft 253 kts 306°
2026-04-27 00:09 28.00665 -82.78534 3104 ft 256 kts 305°
2026-04-27 00:09 28.01730 -82.80173 3395 ft 266 kts 306°
2026-04-27 00:09 28.02853 -82.81914 3428 ft 279 kts 305°
2026-04-27 00:10 28.04009 -82.83732 3446 ft 289 kts 305°
2026-04-27 00:10 28.05212 -82.85600 3446 ft 297 kts 306°
2026-04-27 00:10 28.06414 -82.87477 3446 ft 301 kts 305°
2026-04-27 00:10 28.07628 -82.89393 3448 ft 304 kts 305°
2026-04-27 00:11 28.08872 -82.91346 3448 ft 306 kts 305°
2026-04-27 00:11 28.10123 -82.93306 3444 ft 307 kts 305°
2026-04-27 00:11 28.11373 -82.95275 3446 ft 308 kts 305°
2026-04-27 00:11 28.12628 -82.97251 3451 ft 309 kts 305°
2026-04-27 00:12 28.13886 -82.99222 3447 ft 309 kts 305°
2026-04-27 00:12 28.15129 -83.01187 3448 ft 309 kts 305°
2026-04-27 00:12 28.16380 -83.03151 3446 ft 310 kts 305°
2026-04-27 00:12 28.17639 -83.05140 3414 ft 308 kts 306°
2026-04-27 00:13 28.18875 -83.07094 3458 ft 305 kts 307°
2026-04-27 00:13 28.20114 -83.09034 3480 ft 303 kts 307°
2026-04-27 00:13 28.21344 -83.10971 3487 ft 303 kts 306°
2026-04-27 00:13 28.22566 -83.12913 3489 ft 303 kts 306°
2026-04-27 00:14 28.23791 -83.14852 3494 ft 302 kts 307°
2026-04-27 00:14 28.25013 -83.16779 3488 ft 302 kts 307°
2026-04-27 00:14 28.26238 -83.18717 3492 ft 302 kts 307°
2026-04-27 00:14 28.27445 -83.20626 3502 ft 302 kts 307°
2026-04-27 00:15 28.28669 -83.22567 3495 ft 302 kts 307°
2026-04-27 00:15 28.29891 -83.24507 3503 ft 302 kts 307°
2026-04-27 00:15 28.31117 -83.26441 3498 ft 303 kts 307°
2026-04-27 00:15 28.32348 -83.28384 3503 ft 303 kts 307°
2026-04-27 00:16 28.33572 -83.30330 3500 ft 303 kts 307°
2026-04-27 00:16 28.34796 -83.32281 3505 ft 303 kts 307°
2026-04-27 00:16 28.36028 -83.34231 3498 ft 303 kts 307°
2026-04-27 00:16 28.37259 -83.36177 3500 ft 304 kts 307°
2026-04-27 00:17 28.38487 -83.38132 3501 ft 303 kts 307°
2026-04-27 00:17 28.39712 -83.40083 3497 ft 303 kts 307°
2026-04-27 00:17 28.40941 -83.42031 3499 ft 304 kts 307°
2026-04-27 00:17 28.42172 -83.43990 3503 ft 304 kts 307°
2026-04-27 00:18 28.43382 -83.45916 3499 ft 304 kts 307°
2026-04-27 00:18 28.44614 -83.47868 3500 ft 304 kts 307°
2026-04-27 00:18 28.45819 -83.49790 3503 ft 303 kts 307°
2026-04-27 00:18 28.47043 -83.51742 3499 ft 303 kts 307°
2026-04-27 00:19 28.48264 -83.53684 3495 ft 303 kts 307°
2026-04-27 00:19 28.49484 -83.55633 3495 ft 296 kts 307°
2026-04-27 00:19 28.50639 -83.57487 3487 ft 280 kts 307°
2026-04-27 00:19 28.51745 -83.59266 3422 ft 274 kts 307°
2026-04-27 00:20 28.52880 -83.61071 2881 ft 283 kts 307°
2026-04-27 00:20 28.54020 -83.62866 2519 ft 278 kts 307°
2026-04-27 00:20 28.55140 -83.64633 2157 ft 273 kts 306°
2026-04-27 00:20 28.56236 -83.66381 1817 ft 269 kts 306°
2026-04-27 00:21 28.57294 -83.68094 1646 ft 260 kts 305°
2026-04-27 00:21 28.58318 -83.69740 1556 ft 248 kts 306°
2026-04-27 00:21 28.59298 -83.71286 1517 ft 234 kts 305°
2026-04-27 00:21 28.60263 -83.72732 1500 ft 225 kts 311°
2026-04-27 00:22 28.61459 -83.73832 1502 ft 220 kts 329°
2026-04-27 00:22 28.62865 -83.74458 1504 ft 217 kts 345°
2026-04-27 00:22 28.64361 -83.74628 1524 ft 216 kts 358°
2026-04-27 00:22 28.65835 -83.74855 1513 ft 213 kts 340°
2026-04-27 00:23 28.67260 -83.75300 1496 ft 213 kts 352°
2026-04-27 00:23 28.68619 -83.74840 1462 ft 209 kts 39°
2026-04-27 00:23 28.69181 -83.73374 1458 ft 207 kts 90°
2026-04-27 00:23 28.68758 -83.71837 1492 ft 203 kts 114°
2026-04-27 00:24 28.68210 -83.70392 1492 ft 201 kts 111°
2026-04-27 00:24 28.67706 -83.68915 1487 ft 200 kts 109°
2026-04-27 00:24 28.67240 -83.67426 1490 ft 199 kts 108°
2026-04-27 00:24 28.66768 -83.65940 1490 ft 199 kts 108°
2026-04-27 00:25 28.66290 -83.64471 1493 ft 199 kts 108°
2026-04-27 00:25 28.65818 -83.63007 1487 ft 198 kts 109°
2026-04-27 00:25 28.65173 -83.61640 1445 ft 196 kts 135°
2026-04-27 00:25 28.63984 -83.60988 1449 ft 191 kts 176°
2026-04-27 00:26 28.62711 -83.61250 1474 ft 185 kts 208°
2026-04-27 00:26 28.61773 -83.62169 1477 ft 174 kts 239°
2026-04-27 00:26 28.61405 -83.63420 1485 ft 163 kts 268°
2026-04-27 00:26 28.61589 -83.64655 1481 ft 157 kts 294°
2026-04-27 00:27 28.62292 -83.65555 1488 ft 154 kts 323°
2026-04-27 00:27 28.63112 -83.66319 1486 ft 152 kts 308°
2026-04-27 00:27 28.63542 -83.67430 1302 ft 162 kts 279°
2026-04-27 00:27 28.63435 -83.68713 1139 ft 169 kts 253°
2026-04-27 00:28 28.62836 -83.69859 1064 ft 170 kts 230°
2026-04-27 00:28 28.61868 -83.70627 1033 ft 171 kts 206°
2026-04-27 00:28 28.60712 -83.70949 1022 ft 173 kts 187°
2026-04-27 00:28 28.59523 -83.70827 1008 ft 174 kts 167°
2026-04-27 00:29 28.58428 -83.70259 984 ft 175 kts 142°
2026-04-27 00:29 28.57868 -83.69141 966 ft 159 kts 97°
2026-04-27 00:29 28.58095 -83.68018 974 ft 141 kts 59°
2026-04-27 00:29 28.58548 -83.67072 985 ft 132 kts 58°
2026-04-27 00:30 28.58947 -83.66143 1063 ft 129 kts 61°
2026-04-27 00:30 28.59526 -83.65353 1041 ft 133 kts 29°
2026-04-27 00:30 28.60401 -83.65108 1023 ft 131 kts 352°
2026-04-27 00:30 28.61238 -83.65461 973 ft 130 kts 316°
2026-04-27 00:31 28.61431 -83.66457 726 ft 142 kts 255°
2026-04-27 00:31 28.60676 -83.67239 507 ft 154 kts 206°
2026-04-27 00:31 28.59639 -83.67658 353 ft 159 kts 199°
2026-04-27 00:31 28.58617 -83.67875 636 ft 128 kts 180°
2026-04-27 00:32 28.57937 -83.67359 857 ft 123 kts 120°
2026-04-27 00:32 28.57814 -83.66389 853 ft 132 kts 79°
2026-04-27 00:32 28.58152 -83.65376 748 ft 144 kts 56°
2026-04-27 00:32 28.58831 -83.64473 568 ft 156 kts 38°
2026-04-27 00:33 28.59816 -83.64308 509 ft 142 kts 331°
2026-04-27 00:33 28.60281 -83.65199 419 ft 140 kts 279°
2026-04-27 00:33 28.60420 -83.66325 344 ft 141 kts 274°
2026-04-27 00:33 28.60635 -83.67370 322 ft 140 kts 292°
2026-04-27 00:34 28.60973 -83.68421 386 ft 134 kts 285°
2026-04-27 00:34 28.61196 -83.69420 514 ft 130 kts 280°
2026-04-27 00:34 28.61286 -83.70441 552 ft 128 kts 269°
2026-04-27 00:34 28.61211 -83.71463 552 ft 131 kts 261°
2026-04-27 00:35 28.60875 -83.72391 645 ft 124 kts 219°
2026-04-27 00:35 28.60108 -83.72380 848 ft 117 kts 144°
2026-04-27 00:35 28.60012 -83.71554 30 ft 106 kts 53°
2026-04-27 00:35 28.60149 -83.71332 11 ft 0 kts 28°
2026-04-27 00:36 28.61077 -83.70649 463 ft 202 kts 36°
2026-04-27 00:36 28.61644 -83.69184 493 ft 230 kts 104°
2026-04-27 00:36 28.60802 -83.67644 869 ft 246 kts 130°
2026-04-27 00:36 28.59730 -83.65966 869 ft 273 kts 124°
2026-04-27 00:37 28.58757 -83.64008 751 ft 295 kts 117°
2026-04-27 00:37 28.57915 -83.61850 934 ft 298 kts 112°
2026-04-27 00:37 28.57202 -83.59670 1508 ft 285 kts 109°
2026-04-27 00:37 28.56546 -83.57552 1964 ft 286 kts 108°
2026-04-27 00:38 28.55910 -83.55417 2342 ft 287 kts 108°
2026-04-27 00:38 28.55210 -83.53244 2443 ft 296 kts 109°
2026-04-27 00:38 28.54497 -83.50987 2349 ft 308 kts 107°
2026-04-27 00:38 28.53822 -83.48673 2517 ft 308 kts 106°
2026-04-27 00:39 28.53189 -83.46325 2518 ft 314 kts 104°
2026-04-27 00:39 28.52584 -83.43910 2424 ft 320 kts 104°
2026-04-27 00:39 28.52007 -83.41465 2459 ft 318 kts 102°
2026-04-27 00:39 28.51497 -83.39063 2562 ft 317 kts 101°
2026-04-27 00:40 28.51040 -83.36596 2472 ft 321 kts 99°
2026-04-27 00:40 28.50653 -83.34091 2441 ft 320 kts 97°
2026-04-27 00:40 28.50322 -83.31595 2486 ft 318 kts 96°
2026-04-27 00:40 28.50025 -83.29098 2487 ft 319 kts 95°
2026-04-27 00:41 28.49793 -83.26573 2421 ft 321 kts 92°
2026-04-27 00:41 28.49780 -83.24049 2259 ft 321 kts 78°
2026-04-27 00:41 28.50567 -83.21816 3025 ft 254 kts 57°
2026-04-27 00:41 28.50911 -83.20860 6480 ft 78 kts 64°
2026-04-27 00:42 28.51227 -83.20096 6334 ft 152 kts 48°
2026-04-27 00:42 28.51737 -83.18662 5032 ft 231 kts 82°
2026-04-27 00:42 28.51383 -83.16326 1744 ft 357 kts 99°
2026-04-27 00:42 28.50929 -83.13537 1721 ft 329 kts 107°
2026-04-27 00:43 28.50052 -83.11336 2692 ft 275 kts 111°
2026-04-27 00:43 28.49588 -83.09855 2647 ft 144 kts 94°
2026-04-27 00:43 28.49532 -83.08737 2160 ft 143 kts 86°
2026-04-27 00:43 28.49488 -83.07667 1432 ft 133 kts 86°
2026-04-27 00:44 28.49464 -83.06624 1171 ft 132 kts 90°
2026-04-27 00:44 28.49304 -83.05590 1066 ft 134 kts 102°
2026-04-27 00:44 28.49114 -83.04562 1087 ft 133 kts 97°
2026-04-27 00:44 28.48953 -83.03541 1114 ft 129 kts 96°
2026-04-27 00:45 28.48803 -83.02534 1090 ft 132 kts 98°
2026-04-27 00:45 28.48555 -83.01517 1020 ft 134 kts 112°
2026-04-27 00:45 28.48037 -83.00673 1030 ft 128 kts 136°
2026-04-27 00:45 28.47551 -82.99830 1020 ft 127 kts 116°
2026-04-27 00:46 28.47314 -82.98783 968 ft 151 kts 98°
2026-04-27 00:46 28.47016 -82.97592 935 ft 160 kts 104°
2026-04-27 00:46 28.46658 -82.96387 928 ft 154 kts 107°
2026-04-27 00:46 28.46335 -82.95243 964 ft 149 kts 105°
2026-04-27 00:47 28.46022 -82.94103 1035 ft 160 kts 104°
2026-04-27 00:47 28.45680 -82.92875 1004 ft 165 kts 108°
2026-04-27 00:47 28.45311 -82.91636 991 ft 164 kts 106°
2026-04-27 00:47 28.44953 -82.90505 929 ft 150 kts 106°
2026-04-27 00:48 28.44601 -82.89316 938 ft 167 kts 107°
2026-04-27 00:48 28.44211 -82.88024 921 ft 165 kts 106°
2026-04-27 00:48 28.43814 -82.86832 1016 ft 169 kts 105°
2026-04-27 00:48 28.43400 -82.85493 755 ft 174 kts 113°
2026-04-27 00:49 28.42879 -82.84295 535 ft 188 kts 112°
2026-04-27 00:49 28.42517 -82.82813 1114 ft 178 kts 121°
2026-04-27 00:49 28.41407 -82.82126 1350 ft 215 kts 155°
2026-04-27 00:49 28.39923 -82.81151 879 ft 269 kts 145°
2026-04-27 00:50 28.38472 -82.79530 67 ft 312 kts 122°
2026-04-27 00:50 28.36305 -82.75517 515 ft 264 kts 136°
2026-04-27 00:50 28.34881 -82.74501 610 ft 228 kts 170°
2026-04-27 00:51 28.33872 -82.74386 676 ft 213 kts 181°
2026-04-27 00:51 28.32422 -82.74306 739 ft 205 kts 178°
2026-04-27 00:51 28.30570 -82.74233 757 ft 197 kts 185°
2026-04-27 00:51 28.29210 -82.74337 786 ft 195 kts 188°
2026-04-27 00:52 28.28316 -82.74468 799 ft 195 kts 191°
2026-04-27 00:52 28.26991 -82.74784 807 ft 194 kts 199°
2026-04-27 00:52 28.25719 -82.75279 815 ft 194 kts 204°
2026-04-27 00:52 28.24480 -82.75882 814 ft 194 kts 207°
2026-04-27 00:53 28.23247 -82.76513 810 ft 195 kts 207°
2026-04-27 00:53 28.22014 -82.77167 796 ft 195 kts 207°
2026-04-27 00:53 28.20785 -82.77817 785 ft 195 kts 208°
2026-04-27 00:53 28.19569 -82.78469 781 ft 193 kts 207°
2026-04-27 00:54 28.18365 -82.79131 778 ft 191 kts 209°
2026-04-27 00:54 28.17166 -82.79784 781 ft 191 kts 208°
2026-04-27 00:54 28.15959 -82.80426 799 ft 192 kts 207°
2026-04-27 00:54 28.14727 -82.81030 804 ft 193 kts 204°
2026-04-27 00:55 28.13455 -82.81537 808 ft 195 kts 201°
2026-04-27 00:55 28.12163 -82.82014 811 ft 195 kts 200°
2026-04-27 00:55 28.10857 -82.82429 799 ft 195 kts 197°
2026-04-27 00:55 28.09518 -82.82786 796 ft 203 kts 194°
2026-04-27 00:56 28.08121 -82.83144 792 ft 213 kts 194°
2026-04-27 00:56 28.06651 -82.83510 795 ft 219 kts 194°
2026-04-27 00:56 28.05144 -82.83881 809 ft 224 kts 195°
2026-04-27 00:56 28.03602 -82.84244 817 ft 227 kts 194°
2026-04-27 00:57 28.02044 -82.84611 814 ft 229 kts 194°
2026-04-27 00:57 28.00483 -82.84986 813 ft 230 kts 194°
2026-04-27 00:57 27.98912 -82.85365 801 ft 231 kts 194°
2026-04-27 00:57 27.97349 -82.85755 791 ft 230 kts 193°
2026-04-27 00:58 27.95779 -82.86141 797 ft 231 kts 194°
2026-04-27 00:58 27.94203 -82.86528 791 ft 231 kts 194°
2026-04-27 00:58 27.92633 -82.86917 794 ft 231 kts 194°
2026-04-27 00:58 27.91058 -82.87308 806 ft 231 kts 194°
2026-04-27 00:59 27.89484 -82.87695 804 ft 232 kts 194°
2026-04-27 00:59 27.87902 -82.88080 804 ft 233 kts 194°
2026-04-27 00:59 27.86340 -82.88459 798 ft 232 kts 193°
2026-04-27 00:59 27.84763 -82.88852 797 ft 232 kts 194°
2026-04-27 01:00 27.83153 -82.88983 783 ft 235 kts 170°
2026-04-27 01:00 27.81635 -82.88309 800 ft 236 kts 155°
2026-04-27 01:00 27.80145 -82.87526 801 ft 240 kts 153°
2026-04-27 01:00 27.78678 -82.86574 817 ft 246 kts 149°
2026-04-27 01:01 27.77339 -82.85358 790 ft 250 kts 126°
2026-04-27 01:01 27.76679 -82.83558 802 ft 246 kts 103°
2026-04-27 01:01 27.76292 -82.81949 677 ft 183 kts 102°
2026-04-27 01:01 27.76057 -82.80556 718 ft 195 kts 95°
2026-04-27 01:02 27.75936 -82.78970 931 ft 201 kts 91°
2026-04-27 01:02 27.75901 -82.77436 1053 ft 191 kts 88°
2026-04-27 01:02 27.75877 -82.75943 1141 ft 190 kts 88°
2026-04-27 01:02 27.75815 -82.74445 1152 ft 193 kts 91°
2026-04-27 01:03 27.75756 -82.72920 1160 ft 195 kts 89°
2026-04-27 01:03 27.75921 -82.71438 1172 ft 183 kts 71°
2026-04-27 01:03 27.76434 -82.70147 1163 ft 179 kts 52°
2026-04-27 01:03 27.77269 -82.69130 1099 ft 180 kts 37°
2026-04-27 01:04 27.78276 -82.68255 963 ft 180 kts 29°
2026-04-27 01:04 27.79329 -82.67695 1127 ft 165 kts
2026-04-27 01:04 27.80470 -82.67439 1116 ft 168 kts
2026-04-27 01:04 27.81662 -82.67321 944 ft 178 kts 359°
2026-04-27 01:05 27.82921 -82.67418 831 ft 180 kts 350°
2026-04-27 01:05 27.84180 -82.67629 689 ft 185 kts 349°
2026-04-27 01:05 27.85459 -82.67864 544 ft 186 kts 349°
2026-04-27 01:05 27.86737 -82.68087 429 ft 185 kts 349°
2026-04-27 01:06 27.87943 -82.68304 365 ft 162 kts 348°
2026-04-27 01:06 27.88983 -82.68484 218 ft 141 kts 349°
2026-04-27 01:06 27.89894 -82.68643 48 ft 124 kts 348°
2026-04-27 01:06 27.90631 -82.68777 26 ft 93 kts 350°
2026-04-27 01:07 27.91057 -82.68844 20 ft 60 kts 350°
2026-04-27 01:07 27.91235 -82.68943 20 ft 17 kts 253°
2026-04-27 01:07 27.91208 -82.69013 23 ft 13 kts 221°
2026-04-27 01:07 27.91159 -82.69023 22 ft 9 kts 174°
2026-04-27 01:08 27.91096 -82.69012 23 ft 13 kts 171°
2026-04-27 01:08 27.91050 -82.69038 24 ft 4 kts 249°
2026-04-27 01:08 27.91046 -82.69089 22 ft 10 kts 263°
2026-04-27 01:08 27.91079 -82.69156 22 ft 13 kts 310°
2026-04-27 01:09 27.91138 -82.69238 22 ft 11 kts 307°
2026-04-27 01:09 27.91193 -82.69331 22 ft 8 kts 296°
2026-04-27 01:09 27.91202 -82.69366 22 ft 5 kts 242°
2026-04-27 01:09 27.91109 -82.69454 22 ft 20 kts 220°
2026-04-27 01:10 27.91042 -82.69529 22 ft 2 kts 259°
2026-04-27 01:10 27.91077 -82.69581 22 ft 13 kts 310°
2026-04-27 01:10 27.91097 -82.69598 22 ft 1 kts
2026-04-27 01:10 27.91106 -82.69593 24 ft 1 kts 32°
2026-04-27 01:11 27.91110 -82.69590 24 ft 0 kts 40°